Simultaneous Nadir Overpasses (SNOs) Predictions

Prediction of SNOs between NOAA-19 and NPP Satellite Orbit:

Table of predicted SNOs for the next 14.0 days since TLE Epoch: 7/10/2021
Index Date (NOAA-19) Time (NOAA-19) Lat,Lon (NOAA-19) SZA (NOAA-19 ) Date (NPP) Time (NPP) Lat,Lon (NPP) SZA (NPP ) Distance(km) Time Diff (sec)
1 07/19/2021 06:28:02 -78.13,-122.63 121.28 07/19/2021 06:29:05 -78.13,-122.68 121.31 1.16 63
2 07/19/2021 07:18:57 78.13, 44.64 58.73 07/19/2021 07:19:50 78.11, 44.73 58.68 3.21 53
3 07/19/2021 08:10:02 -78.14,-148.07 121.27 07/19/2021 08:10:35 -78.13,-148.07 121.29 1.22 33
4 07/19/2021 09:00:57 78.14, 19.20 58.74 07/19/2021 09:01:21 78.15, 19.13 58.75 1.95 24
5 07/19/2021 09:52:02 -78.15,-173.50 121.25 07/19/2021 09:52:05 -78.13,-173.45 121.28 2.46 3
6 07/19/2021 10:42:57 78.15, -6.23 58.76 07/19/2021 10:42:51 78.15, -6.25 58.76 0.50 6
7 07/19/2021 11:34:02 -78.16, 161.07 121.24 07/19/2021 11:33:36 -78.17, 160.95 121.21 3.05 26
8 07/19/2021 12:24:57 78.16, -31.66 58.77 07/19/2021 12:24:21 78.15, -31.64 58.78 1.05 36
9 07/19/2021 13:16:02 -78.17, 135.64 121.22 07/19/2021 13:15:06 -78.17, 135.56 121.19 1.77 56
10 07/19/2021 14:06:57 78.17, -57.10 58.79 07/19/2021 14:05:51 78.15, -57.02 58.79 2.51 66



Historial Predications of SNOs between NOAA-19 and NPP
